Location: Dampvalley
(47.9094°N, 6.1967°E)
Time: 03:04:22
(UTC+00:00)

N. Korean satellite - Pass Details

Date: 05 December 2022
Orbit: 407 x 444 km, 97.3° (Epoch: 28 January)

Event Time Altitude Azimuth Distance (km) Brightness Sun altitude
Rises 05:56:45 0° 359° (N) 2,517 10.0 -11.5°
Reaches altitude 10° 05:59:11 10° 343° (NNW) 1,629 8.9 -11.1°
Maximum altitude 06:01:48 20° 294° (WNW) 1,129 7.8 -10.7°
Drops below altitude 10° 06:04:22 10° 246° (WSW) 1,601 8.8 -10.3°
Sets 06:06:44 0° 229° (SW) 2,459 9.9 -9.9°
